RH
62 59 59 58 60 62 63 63 63 61 61 61 62 63 65 66 68 65 61 60 60 62 65 65 65 65 64 66 67 68 70 71 73 73 72 73 74 74 75 73 71 70
61 61 60 57 58 61 63 64 64 62 64 65 65 67 67 68 69 67 63 62 61 60 61 63 64 64 63 63 63 65 65 65 64 64 62 61 61 62 63 64 64 63
59 59 61 59 57 58 59 61 62 62 65 67 68 71 70 70 72 71 68 67 65 63 62 61 62 63 62 61 61 61 62 62 60 59 57 55 54 55 54 54 54 55
54 55 58 58 57 56 56 58 60 61 64 67 69 71 71 72 75 74 73 74 73 70 67 65 65 65 64 63 62 61 59 60 59 58 57 56 54 53 52 51 50 50
50 51 53 54 54 54 53 54 57 59 62 65 69 70 69 71 75 75 77 79 78 76 73 73 73 72 69 67 65 64 62 60 59 58 58 58 57 55 54 52 51 50
47 47 49 50 50 51 52 52 55 58 59 62 67 69 67 68 72 73 76 79 80 80 79 80 82 80 77 76 73 71 70 67 63 59 58 57 57 57 57 55 54 53
48 47 48 50 49 51 52 51 52 55 58 61 65 67 65 66 69 70 74 77 78 81 83 86 88 86 84 84 84 81 79 78 74 70 66 63 60 58 57 56 56 55
50 49 49 52 52 53 53 52 52 53 55 59 64 66 65 65 67 69 71 74 76 79 81 84 86 87 87 88 88 86 84 84 84 83 81 77 73 70 66 62 60 59
49 47 48 53 54 52 52 52 52 51 53 58 64 66 65 64 66 69 71 73 76 77 77 79 81 82 85 87 87 88 89 89 88 88 89 88 87 86 83 80 76 73
49 46 46 52 54 52 51 52 52 51 52 57 64 66 64 64 66 68 72 75 77 78 77 77 79 80 82 84 85 88 92 94 95 95 95 94 94 93 91 91 90 89
50 46 45 48 51 51 51 51 52 52 51 55 64 67 65 65 66 68 74 77 78 79 80 79 80 82 83 84 86 91 96 98 99 100 98 95 95 96 96 96 96 97
50 47 45 46 48 49 49 51 52 50 50 56 64 68 68 68 68 70 72 76 79 81 82 83 82 83 86 89 94 97 99 100 100 100 99 97 97 98 99 100 99 100
51 48 46 47 48 49 50 52 52 49 50 56 63 69 73 72 72 73 71 74 79 82 85 86 81 83 89 92 96 100 100 100 100 100 100 100 100 100 100 100 99 99
54 52 48 49 50 49 50 53 52 49 50 55 63 70 74 77 77 76 75 75 73 76 88 89 79 81 88 88 91 99 101 99 99 100 99 98 100 100 98 98 97 94
57 56 52 51 52 50 51 54 53 50 50 55 64 71 76 79 75 75 80 74 66 73 85 79 67 66 74 82 93 101 101 98 99 100 96 95 98 96 89 88 88 84
56 58 55 53 53 52 54 56 54 53 53 56 65 73 78 74 68 75 81 70 69 82 76 57 44 43 58 84 100 102 99 98 100 99 96 96 96 88 82 82 80 77
58 60 57 55 55 55 57 58 58 58 58 60 68 74 76 69 65 76 77 68 79 89 66 41 34 40 68 97 102 99 100 101 100 98 97 100 95 86 84 83 79 82
64 64 61 59 58 58 60 62 62 62 62 65 70 72 70 64 65 78 79 76 89 85 55 41 42 54 85 105 99 98 102 99 98 96 96 98 92 81 76 76 84 94
68 69 65 62 61 61 63 65 65 67 68 70 73 72 69 67 73 82 83 83 90 78 53 48 52 65 93 105 99 99 101 99 99 95 94 96 88 74 66 74 95 100
72 73 69 66 64 64 67 69 70 72 72 74 78 77 76 78 82 85 82 82 87 80 65 59 61 77 100 103 98 101 101 100 94 84 88 95 87 77 76 87 102 97
76 75 71 68 66 67 71 72 73 76 77 79 85 86 86 87 85 84 82 82 85 84 78 69 67 84 104 102 98 102 101 96 89 81 88 94 85 83 90 94 96 91
79 76 72 69 69 72 75 75 76 81 83 86 89 90 91 91 86 84 84 84 86 86 82 74 66 75 98 103 98 102 101 93 88 85 88 88 80 83 93 93 90 91
80 77 73 73 75 78 79 78 81 85 88 90 91 90 93 93 90 89 86 85 91 90 84 81 67 62 87 105 99 99 102 94 90 90 87 84 80 83 91 89 87 93
80 78 77 78 81 82 80 81 85 90 91 89 89 92 95 92 89 91 89 88 95 95 89 92 79 58 73 101 101 98 102 97 91 90 85 83 84 85 89 90 88 93
81 81 81 84 85 82 81 83 87 92 91 90 93 94 91 90 92 96 95 91 96 99 95 99 90 63 66 95 104 98 101 99 95 92 90 91 91 88 89 89 86 88
85 85 85 87 86 81 79 82 87 92 93 94 97 91 85 92 98 96 90 86 89 97 96 97 92 74 72 95 104 98 100 101 96 96 95 92 89 86 85 83 81 84
Wind_Speed
23 23 23 22 21 20 21 22 21 21 21 21 21 21 20 20 20 19 17 17 16 13 12 12 13 15 17 19 21 23 25 26 27 27 27 28 30 31 31 32 32 32
22 22 22 23 22 22 22 21 20 20 20 20 19 20 20 19 20 19 17 17 16 14 13 12 12 12 12 14 17 20 23 25 26 27 27 29 30 31 32 32 32 33
21 21 21 22 23 24 24 23 21 20 21 20 20 20 20 19 19 18 17 17 16 14 13 12 12 12 12 12 13 16 17 19 21 21 22 24 26 28 30 30 31 32
20 21 20 20 21 22 25 24 23 23 23 22 21 21 21 20 20 19 18 17 16 16 14 12 12 12 11 11 12 14 16 16 17 17 17 18 18 20 22 23 25 27
20 20 20 22 21 21 23 23 23 23 23 23 22 22 21 20 20 20 19 18 18 17 16 14 13 13 11 10 10 10 12 14 16 17 18 19 18 17 17 18 20 22
21 21 22 23 21 19 21 23 22 23 23 23 23 22 21 20 20 20 19 19 19 18 17 15 15 14 13 12 11 9 9 9 11 13 15 17 17 17 17 17 17 19
22 22 22 22 20 20 22 22 22 23 23 23 22 22 21 21 21 20 19 19 19 18 17 15 15 14 13 13 13 12 11 10 9 9 10 11 12 14 15 16 17 17
21 21 20 19 20 22 23 23 23 24 23 23 22 21 21 21 21 20 20 19 19 18 16 16 15 14 13 13 13 13 13 13 12 11 10 9 9 10 11 12 14 14
20 20 18 17 19 21 22 22 24 24 24 23 22 21 20 20 20 20 19 18 18 17 16 16 15 15 14 14 13 13 13 13 13 12 12 12 11 11 11 11 11 12
20 20 18 17 17 19 20 22 24 24 24 22 21 21 21 20 19 19 18 18 17 17 16 16 15 15 14 13 13 12 12 12 11 11 11 11 11 11 11 12 12 12
19 19 18 17 17 18 19 20 22 24 23 22 21 21 20 20 20 19 18 18 17 17 17 16 15 15 13 13 12 11 11 11 11 11 10 10 9 10 10 10 10 10
18 18 18 17 17 18 19 19 21 22 22 21 20 20 20 20 19 18 18 17 17 16 16 15 15 14 12 12 12 11 11 12 12 12 12 11 10 9 9 8 7 6
18 18 18 17 17 18 19 20 21 21 21 20 19 19 19 19 19 18 17 17 16 16 15 16 15 13 12 12 10 10 12 14 14 13 11 9 8 7 6 6 5 6
19 18 17 16 17 18 18 18 19 19 19 19 19 19 19 18 18 18 18 17 17 15 14 16 15 12 12 12 10 11 14 16 15 12 10 7 5 4 5 5 6 7
19 18 17 16 16 17 18 18 18 18 19 18 19 18 18 18 18 17 18 18 17 15 15 16 15 13 12 12 13 14 15 16 14 11 9 8 6 6 7 7 8 9
20 18 17 15 14 16 18 19 18 18 18 18 18 18 17 19 18 17 18 18 17 16 16 16 15 12 11 12 14 14 14 15 12 7 5 5 5 7 8 9 9 10
20 18 16 14 13 15 16 18 19 19 18 18 17 17 18 19 18 17 18 17 16 16 18 16 13 11 11 13 14 13 13 12 7 3 4 5 5 7 8 8 9 8
18 16 14 12 12 14 15 18 20 19 18 17 17 17 19 18 17 16 16 15 15 17 17 14 10 9 11 14 13 12 12 9 5 5 6 5 6 8 7 7 7 6
16 13 11 11 12 13 16 18 20 20 18 17 17 17 17 16 15 15 15 14 15 17 16 12 8 7 11 13 12 11 12 9 7 7 6 6 8 9 8 7 5 4
12 11 9 10 12 15 17 19 20 19 18 17 16 16 15 14 14 14 13 13 15 16 14 10 7 8 12 13 12 12 11 9 8 7 6 6 7 8 8 6 4 5
10 8 7 10 14 16 18 20 20 18 17 16 15 14 14 13 13 13 12 12 13 14 12 9 7 9 12 13 12 12 11 9 8 7 5 5 6 7 5 4 5 7
8 6 8 12 15 17 19 20 19 17 15 14 14 13 13 12 12 12 11 10 11 11 10 8 7 9 12 13 13 12 11 10 8 6 5 5 6 5 3 3 5 7
6 8 11 13 15 17 19 20 18 16 14 12 12 13 12 12 11 10 9 9 9 10 9 8 8 9 11 13 13 12 11 10 7 6 5 6 6 5 3 3 5 7
8 11 13 14 15 16 18 18 17 15 14 13 12 12 13 12 11 10 9 8 8 8 7 7 9 9 9 12 13 12 11 10 7 5 5 5 5 5 5 5 5 7
14 15 14 14 14 15 16 17 16 16 14 13 12 12 13 12 10 9 9 7 7 8 6 6 9 9 9 11 13 12 11 9 5 4 4 5 5 6 8 8 7 6
15 14 13 13 14 15 16 16 15 15 14 12 12 13 12 10 9 9 9 8 7 6 5 6 9 10 10 12 13 13 11 6 3 3 6 8 8 8 8 9 9 9
Wind_Direction
351 353 353 353 351 348 346 347 345 344 345 345 346 345 341 343 342 339 342 342 336 330 321 305 291 280 271 263 258 253 249 247 246 245 242 241 241 240 237 236 235 233
346 348 349 350 348 345 344 344 342 341 340 338 339 337 335 339 338 335 339 341 336 334 332 323 311 299 286 275 264 254 249 246 246 247 246 245 244 243 241 241 239 237
343 342 343 346 347 344 343 342 340 339 337 335 335 333 332 334 334 332 334 335 332 329 330 330 326 316 304 292 280 268 260 253 249 247 247 245 243 240 240 241 240 238
343 340 340 341 342 342 343 341 337 337 336 336 335 333 334 334 331 330 330 331 330 325 322 324 327 325 318 307 294 284 277 270 264 260 258 256 251 245 242 240 238 236
341 338 335 330 328 334 342 341 336 334 334 333 331 332 334 335 331 330 330 329 328 326 324 323 322 318 316 316 310 301 291 282 276 272 269 267 263 259 256 253 248 244
335 335 332 326 323 331 341 341 334 331 332 330 328 330 332 332 331 331 332 330 329 329 328 328 326 318 313 313 311 309 308 301 288 279 276 272 268 264 262 261 259 256
333 335 332 328 331 339 342 341 334 329 329 328 325 327 330 331 331 331 331 330 330 331 331 331 328 324 320 317 312 306 305 307 302 294 289 284 278 272 266 266 266 264
332 332 330 325 327 333 335 336 333 328 327 326 324 324 327 329 329 329 329 329 329 330 330 330 329 328 326 322 318 312 306 305 304 303 301 296 292 287 280 275 272 270
328 328 329 324 322 326 329 331 331 328 325 324 322 322 325 327 328 327 327 327 328 329 329 329 330 330 328 325 324 322 316 312 309 306 305 301 297 295 290 287 285 283
324 327 328 326 323 325 326 326 327 327 324 322 320 320 323 324 325 327 327 327 328 329 330 330 331 331 331 330 328 326 323 321 319 314 310 307 304 301 299 296 295 294
317 322 325 325 324 323 321 320 322 322 322 320 318 318 321 323 324 326 327 328 328 329 329 331 331 329 329 330 329 328 328 326 323 318 313 310 307 307 307 307 305 302
309 315 320 322 323 322 320 320 319 319 318 317 316 317 318 320 323 324 325 326 326 327 329 330 328 327 330 333 332 332 334 332 327 321 316 311 310 314 318 322 330 336
305 310 313 316 318 318 315 315 317 316 314 313 313 313 314 317 319 320 322 322 320 323 326 324 322 326 332 331 329 334 337 335 331 326 321 315 313 317 330 351 13 30
298 301 305 309 313 313 312 313 315 312 310 309 307 308 311 313 315 317 317 315 315 319 320 317 318 326 330 327 330 338 337 334 333 331 334 344 350 352 5 14 16 20
294 292 295 301 306 309 313 315 314 309 307 304 303 304 305 305 308 312 312 310 313 316 313 313 318 322 326 330 335 333 329 329 329 325 332 348 359 3 8 10 0 0
290 285 287 295 302 305 309 313 311 308 305 301 300 301 298 300 305 307 305 308 314 314 311 315 321 322 327 333 331 324 323 327 323 318 340 360 3 359 360 359 352 349
284 278 280 288 297 301 305 308 308 306 303 300 298 297 295 300 304 301 301 308 311 310 313 319 324 329 335 334 329 325 327 326 316 338 26 28 24 15 5 358 355 350
278 274 277 286 295 298 300 304 307 305 302 299 296 295 297 300 302 300 303 308 307 307 315 323 329 340 339 334 333 334 335 338 350 20 27 24 17 14 7 4 9 9
278 273 276 287 294 295 297 304 306 303 300 298 296 296 299 301 301 302 305 307 304 306 316 323 332 350 343 336 339 339 338 356 24 31 27 11 360 1 6 16 29 25
284 269 272 288 291 292 298 302 303 300 297 296 296 297 300 300 300 302 303 303 302 307 318 323 330 349 343 339 345 343 342 359 12 11 8 355 352 0 9 31 46 22
286 270 274 286 289 293 299 301 300 298 296 295 296 297 297 296 297 298 298 298 300 305 314 320 330 344 343 343 347 345 349 3 360 354 356 345 349 2 11 40 36 11
289 288 288 286 288 294 299 300 299 296 294 295 296 295 293 293 295 295 293 295 296 299 308 318 332 345 345 346 348 346 352 3 358 351 348 336 343 355 359 30 23 13
301 297 290 286 290 296 297 297 295 292 292 293 293 293 292 293 294 293 293 293 290 291 304 317 329 345 349 347 348 349 352 357 355 348 340 332 339 345 344 26 36 31
303 294 288 287 291 294 293 291 289 288 288 289 289 290 290 293 298 297 294 291 287 289 299 313 322 340 354 349 349 352 352 353 352 341 331 330 337 354 21 54 59 42
302 296 290 290 291 291 288 285 284 284 288 289 287 284 286 292 297 294 287 282 284 290 292 304 319 339 355 352 351 350 346 347 348 340 353 12 27 38 42 43 38 20
303 294 288 287 287 287 285 283 281 283 287 289 285 284 290 293 288 284 281 279 281 281 278 300 327 346 354 352 352 349 351 14 79 63 46 50 48 37 21 11 3 345